owner,sensor,date,latitude,longitude,vertical_datum,direction_of_sea_water_velocity,sea_water_speed,upward_sea_water_velocity,qcFlag 
TABS,ioos:station:wmo:42047:1,2004-08-19T16:00:00Z,27.8966,-93.5973,2.0,50.55415062,41.20564039,-99999.0,'11111222,11111222,99999999' 
TABS,ioos:station:wmo:42047:1,2004-08-19T16:30:00Z,27.8966,-93.5973,2.0,46.11191361,40.08635928,-99999.0,'11111222,11111222,99999999' 
TABS,ioos:station:wmo:42047:1,2004-08-19T17:00:00Z,27.8966,-93.5973,2.0,49.44207118,37.34133501,-99999.0,'11111222,11111222,99999999' 
TABS,ioos:station:wmo:42047:1,2004-08-19T17:30:00Z,27.8966,-93.5973,2.0,47.81823572,41.13264883,-99999.0,'11111222,11111222,99999999' 
TABS,ioos:station:wmo:42047:1,2004-08-19T18:00:00Z,27.8966,-93.5973,2.0,47.58319838,38.75347339,-99999.0,'11111222,11111222,99999999' 
TABS,ioos:station:wmo:42047:1,2004-08-19T18:30:00Z,27.8966,-93.5973,2.0,47.31842072,40.90425161,-99999.0,'11111222,11111222,99999999' 
TABS,ioos:station:wmo:42047:1,2004-08-19T19:00:00Z,27.8966,-93.5973,2.0,43.87242052,43.474274,-99999.0,'11111222,11111222,99999999' 
TABS,ioos:station:wmo:42047:1,2004-08-19T19:30:00Z,27.8966,-93.5973,2.0,46.18229007,41.81305299,-99999.0,'11111222,11111222,99999999' 
TABS,ioos:station:wmo:42047:1,2004-08-19T20:00:00Z,27.8966,-93.5973,2.0,42.85894696,43.3405503,-99999.0,'11111222,11111222,99999999' 
TABS,ioos:station:wmo:42047:1,2004-08-19T20:30:00Z,27.8966,-93.5973,2.0,40.48297652,47.22586156,-99999.0,'11111222,11111222,99999999' 
TABS,ioos:station:wmo:42047:1,2004-08-19T21:00:00Z,27.8966,-93.5973,2.0,41.43829492,47.00733666,-99999.0,'11111222,11111222,99999999' 
TABS,ioos:station:wmo:42047:1,2004-08-19T21:30:00Z,27.8966,-93.5973,2.0,41.8576168,50.56345716,-99999.0,'11111222,11111222,99999999' 
TABS,ioos:station:wmo:42047:1,2004-08-19T22:00:00Z,27.8966,-93.5973,2.0,43.71545142,51.09423647,-99999.0,'11111222,11111222,99999999' 
TABS,ioos:station:wmo:42047:1,2004-08-19T22:30:00Z,27.8966,-93.5973,2.0,46.81227343,47.1805479,-99999.0,'11111222,11111222,99999999' 
TABS,ioos:station:wmo:42047:1,2004-08-19T23:00:00Z,27.8966,-93.5973,2.0,50.25459521,46.4044319,-99999.0,'11111222,11111222,99999999' 
TABS,ioos:station:wmo:42047:1,2004-08-19T23:30:00Z,27.8966,-93.5973,2.0,50.95300993,45.74902513,-99999.0,'11111222,11111222,99999999' 
TABS,ioos:station:wmo:42047:1,2004-08-20T00:00:00Z,27.8966,-93.5973,2.0,52.1769503,46.52443874,-99999.0,'11111222,11111222,99999999' 
TABS,ioos:station:wmo:42047:1,2004-08-20T00:30:00Z,27.8966,-93.5973,2.0,52.18637906,46.7463421,-99999.0,'11111222,11111222,99999999' 
TABS,ioos:station:wmo:42047:1,2004-08-20T01:00:00Z,27.8966,-93.5973,2.0,53.71138181,45.94036352,-99999.0,'11111222,11111222,99999999' 
TABS,ioos:station:wmo:42047:1,2004-08-20T01:30:00Z,27.8966,-93.5973,2.0,52.11997779,49.00561702,-99999.0,'11111222,11111222,99999999' 
TABS,ioos:station:wmo:42047:1,2004-08-20T02:00:00Z,27.8966,-93.5973,2.0,53.77672448,47.5010242,-99999.0,'11111222,11111222,99999999' 
TABS,ioos:station:wmo:42047:1,2004-08-20T02:30:00Z,27.8966,-93.5973,2.0,51.91027411,46.7826036,-99999.0,'11111222,11111222,99999999' 
TABS,ioos:station:wmo:42047:1,2004-08-20T03:00:00Z,27.8966,-93.5973,2.0,53.12514361,45.42800018,-99999.0,'11111222,11111222,99999999' 
TABS,ioos:station:wmo:42047:1,2004-08-20T03:30:00Z,27.8966,-93.5973,2.0,54.22467901,40.625412,-99999.0,'11111222,11111222,99999999' 
TABS,ioos:station:wmo:42047:1,2004-08-20T04:00:00Z,27.8966,-93.5973,2.0,51.23008205,42.22321636,-99999.0,'11111222,11111222,99999999' 
TABS,ioos:station:wmo:42047:1,2004-08-20T04:30:00Z,27.8966,-93.5973,2.0,51.72041294,38.36961428,-99999.0,'11111222,11111222,99999999' 
TABS,ioos:station:wmo:42047:1,2004-08-20T05:00:00Z,27.8966,-93.5973,2.0,47.34554845,39.56748792,-99999.0,'11111222,11111222,99999999' 
TABS,ioos:station:wmo:42047:1,2004-08-20T05:30:00Z,27.8966,-93.5973,2.0,47.18257214,37.13590177,-99999.0,'11111222,11111222,99999999' 
TABS,ioos:station:wmo:42047:1,2004-08-20T06:00:00Z,27.8966,-93.5973,2.0,43.45405253,41.67083033,-99999.0,'11111222,11111222,99999999' 
TABS,ioos:station:wmo:42047:1,2004-08-20T06:30:00Z,27.8966,-93.5973,2.0,50.51849314,39.85339634,-99999.0,'11111222,11111222,99999999' 
TABS,ioos:station:wmo:42047:1,2004-08-20T07:00:00Z,27.8966,-93.5973,2.0,50.872057,38.22168102,-99999.0,'11111222,11111222,99999999' 
TABS,ioos:station:wmo:42047:1,2004-08-20T07:30:00Z,27.8966,-93.5973,2.0,50.13048435,44.67721679,-99999.0,'11111222,11111222,99999999' 
TABS,ioos:station:wmo:42047:1,2004-08-20T08:00:00Z,27.8966,-93.5973,2.0,51.26055159,43.76930089,-99999.0,'11111222,11111222,99999999' 
TABS,ioos:station:wmo:42047:1,2004-08-20T08:30:00Z,27.8966,-93.5973,2.0,52.59689144,37.17361026,-99999.0,'11111222,11111222,99999999' 
TABS,ioos:station:wmo:42047:1,2004-08-20T09:00:00Z,27.8966,-93.5973,2.0,55.34457423,34.73193631,-99999.0,'11111222,11111222,99999999' 
TABS,ioos:station:wmo:42047:1,2004-08-20T09:30:00Z,27.8966,-93.5973,2.0,59.66658539,32.11676821,-99999.0,'11111222,11111222,99999999' 
TABS,ioos:station:wmo:42047:1,2004-08-20T10:00:00Z,27.8966,-93.5973,2.0,61.20963589,33.28437772,-99999.0,'11111222,11111222,99999999' 
TABS,ioos:station:wmo:42047:1,2004-08-20T10:30:00Z,27.8966,-93.5973,2.0,58.69553256,31.71750936,-99999.0,'11111222,11111222,99999999' 
TABS,ioos:station:wmo:42047:1,2004-08-20T11:00:00Z,27.8966,-93.5973,2.0,60.7798125,33.59497581,-99999.0,'11111222,11111222,99999999' 
TABS,ioos:station:wmo:42047:1,2004-08-20T11:30:00Z,27.8966,-93.5973,2.0,54.9782636,31.504387,-99999.0,'11111222,11111222,99999999' 
TABS,ioos:station:wmo:42047:1,2004-08-20T12:00:00Z,27.8966,-93.5973,2.0,55.76653914,31.87173356,-99999.0,'11111222,11111222,99999999' 
TABS,ioos:station:wmo:42047:1,2004-08-20T12:30:00Z,27.8966,-93.5973,2.0,56.35178546,34.23610521,-99999.0,'11111222,11111222,99999999' 
TABS,ioos:station:wmo:42047:1,2004-08-20T13:00:00Z,27.8966,-93.5973,2.0,53.92329678,34.09926685,-99999.0,'11111222,11111222,99999999' 
TABS,ioos:station:wmo:42047:1,2004-08-20T13:30:00Z,27.8966,-93.5973,2.0,52.17550917,35.89098215,-99999.0,'11111222,11111222,99999999' 
TABS,ioos:station:wmo:42047:1,2004-08-20T14:00:00Z,27.8966,-93.5973,2.0,53.58029639,37.67916268,-99999.0,'11111222,11111222,99999999' 
TABS,ioos:station:wmo:42047:1,2004-08-20T14:30:00Z,27.8966,-93.5973,2.0,50.90071631,40.30651064,-99999.0,'11111222,11111222,99999999' 
TABS,ioos:station:wmo:42047:1,2004-08-20T15:00:00Z,27.8966,-93.5973,2.0,49.89355332,40.9493199,-99999.0,'11111222,11111222,99999999' 
TABS,ioos:station:wmo:42047:1,2004-08-20T15:30:00Z,27.8966,-93.5973,2.0,47.92655623,43.90494847,-99999.0,'11111222,11111222,99999999' 
TABS,ioos:station:wmo:42047:1,2004-08-20T16:00:00Z,27.8966,-93.5973,2.0,47.43364122,47.12874388,-99999.0,'11111222,11111222,99999999' 
TABS,ioos:station:wmo:42047:1,2004-08-20T16:30:00Z,27.8966,-93.5973,2.0,44.37194234,49.66309394,-99999.0,'11111222,11111222,99999999' 
TABS,ioos:station:wmo:42047:1,2004-08-20T17:00:00Z,27.8966,-93.5973,2.0,43.74671184,50.42877948,-99999.0,'11111222,11111222,99999999' 
TABS,ioos:station:wmo:42047:1,2004-08-20T17:30:00Z,27.8966,-93.5973,2.0,44.73893031,49.63941176,-99999.0,'11111222,11111222,99999999' 
TABS,ioos:station:wmo:42047:1,2004-08-20T18:00:00Z,27.8966,-93.5973,2.0,47.03909719,51.87084056,-99999.0,'11111222,11111222,99999999' 
TABS,ioos:station:wmo:42047:1,2004-08-20T18:30:00Z,27.8966,-93.5973,2.0,49.39072171,53.84864808,-99999.0,'11111222,11111222,99999999' 
TABS,ioos:station:wmo:42047:1,2004-08-20T19:00:00Z,27.8966,-93.5973,2.0,50.11223582,57.05713365,-99999.0,'11111222,11111222,99999999' 
TABS,ioos:station:wmo:42047:1,2004-08-20T19:30:00Z,27.8966,-93.5973,2.0,46.47254873,56.96211811,-99999.0,'11111222,11111222,99999999' 
TABS,ioos:station:wmo:42047:1,2004-08-20T20:00:00Z,27.8966,-93.5973,2.0,48.38878748,59.93309687,-99999.0,'11111222,11111222,99999999' 
TABS,ioos:station:wmo:42047:1,2004-08-20T20:30:00Z,27.8966,-93.5973,2.0,48.78575342,58.79694295,-99999.0,'11111222,11111222,99999999' 
TABS,ioos:station:wmo:42047:1,2004-08-20T21:00:00Z,27.8966,-93.5973,2.0,47.9549513,57.33773975,-99999.0,'11111222,11111222,99999999' 
TABS,ioos:station:wmo:42047:1,2004-08-20T21:30:00Z,27.8966,-93.5973,2.0,47.72852499,54.66475464,-99999.0,'11111222,11111222,99999999' 
TABS,ioos:station:wmo:42047:1,2004-08-20T22:00:00Z,27.8966,-93.5973,2.0,48.5674332,58.98092319,-99999.0,'11111222,11111222,99999999' 
TABS,ioos:station:wmo:42047:1,2004-08-20T22:30:00Z,27.8966,-93.5973,2.0,51.2608566,54.07677875,-99999.0,'11111222,11111222,99999999' 
TABS,ioos:station:wmo:42047:1,2004-08-20T23:00:00Z,27.8966,-93.5973,2.0,53.67018587,48.59615828,-99999.0,'11111222,11111222,99999999' 
TABS,ioos:station:wmo:42047:1,2004-08-20T23:30:00Z,27.8966,-93.5973,2.0,53.18132799,47.05601874,-99999.0,'11111222,11111222,99999999' 
TABS,ioos:station:wmo:42047:1,2004-08-21T00:00:00Z,27.8966,-93.5973,2.0,55.83409572,43.07395617,-99999.0,'11111222,11111222,99999999' 
TABS,ioos:station:wmo:42047:1,2004-08-21T00:30:00Z,27.8966,-93.5973,2.0,58.09102853,39.08641708,-99999.0,'11111222,11111222,99999999' 
TABS,ioos:station:wmo:42047:1,2004-08-21T01:00:00Z,27.8966,-93.5973,2.0,54.83911961,36.95243564,-99999.0,'11111222,11111222,99999999' 
TABS,ioos:station:wmo:42047:1,2004-08-21T01:30:00Z,27.8966,-93.5973,2.0,53.7859041,34.95228891,-99999.0,'11111222,11111222,99999999' 
TABS,ioos:station:wmo:42047:1,2004-08-21T02:00:00Z,27.8966,-93.5973,2.0,53.00674477,32.49007541,-99999.0,'11111222,11111222,99999999' 
TABS,ioos:station:wmo:42047:1,2004-08-21T02:30:00Z,27.8966,-93.5973,2.0,49.7397097,30.80792431,-99999.0,'11111222,11111222,99999999' 
TABS,ioos:station:wmo:42047:1,2004-08-21T03:00:00Z,27.8966,-93.5973,2.0,49.45158488,30.61106989,-99999.0,'11111222,11111222,99999999' 
TABS,ioos:station:wmo:42047:1,2004-08-21T03:30:00Z,27.8966,-93.5973,2.0,48.02790456,31.19159662,-99999.0,'11111222,11111222,99999999' 
TABS,ioos:station:wmo:42047:1,2004-08-21T04:00:00Z,27.8966,-93.5973,2.0,46.85132787,28.89332103,-99999.0,'11111222,11111222,99999999' 
TABS,ioos:station:wmo:42047:1,2004-08-21T04:30:00Z,27.8966,-93.5973,2.0,46.19269409,28.19845563,-99999.0,'11111222,11111222,99999999' 
TABS,ioos:station:wmo:42047:1,2004-08-21T05:00:00Z,27.8966,-93.5973,2.0,43.0303964,26.74443867,-99999.0,'11111222,11111222,99999999' 
TABS,ioos:station:wmo:42047:1,2004-08-21T05:30:00Z,27.8966,-93.5973,2.0,49.90435063,26.79846264,-99999.0,'11111222,11111222,99999999' 
TABS,ioos:station:wmo:42047:1,2004-08-21T06:00:00Z,27.8966,-93.5973,2.0,46.66814975,27.20685575,-99999.0,'11111222,11111222,99999999' 
TABS,ioos:station:wmo:42047:1,2004-08-21T06:30:00Z,27.8966,-93.5973,2.0,48.83288841,25.91686131,-99999.0,'11111222,11111222,99999999' 
TABS,ioos:station:wmo:42047:1,2004-08-21T07:00:00Z,27.8966,-93.5973,2.0,43.23474655,31.44582166,-99999.0,'11111222,11111222,99999999' 
TABS,ioos:station:wmo:42047:1,2004-08-21T07:30:00Z,27.8966,-93.5973,2.0,46.98733475,34.05352992,-99999.0,'11111222,11111222,99999999' 
TABS,ioos:station:wmo:42047:1,2004-08-21T08:00:00Z,27.8966,-93.5973,2.0,52.29438384,32.35744273,-99999.0,'11111222,11111222,99999999' 
TABS,ioos:station:wmo:42047:1,2004-08-21T08:30:00Z,27.8966,-93.5973,2.0,49.26067826,29.69569666,-99999.0,'11111222,11111222,99999999' 
TABS,ioos:station:wmo:42047:1,2004-08-21T09:00:00Z,27.8966,-93.5973,2.0,43.65142004,29.74207962,-99999.0,'11111222,11111222,99999999' 
TABS,ioos:station:wmo:42047:1,2004-08-21T09:30:00Z,27.8966,-93.5973,2.0,47.3250772,30.15464309,-99999.0,'11111222,11111222,99999999' 
TABS,ioos:station:wmo:42047:1,2004-08-21T10:00:00Z,27.8966,-93.5973,2.0,47.26428016,31.85881981,-99999.0,'11111222,11111222,99999999' 
TABS,ioos:station:wmo:42047:1,2004-08-21T10:30:00Z,27.8966,-93.5973,2.0,48.9265473,36.45206304,-99999.0,'11111222,11111222,99999999' 
TABS,ioos:station:wmo:42047:1,2004-08-21T11:00:00Z,27.8966,-93.5973,2.0,49.66196742,34.71357804,-99999.0,'11111222,11111222,99999999' 
TABS,ioos:station:wmo:42047:1,2004-08-21T11:30:00Z,27.8966,-93.5973,2.0,53.77528118,38.19242071,-99999.0,'11111222,11111222,99999999' 
TABS,ioos:station:wmo:42047:1,2004-08-21T12:00:00Z,27.8966,-93.5973,2.0,52.50419446,38.44229442,-99999.0,'11111222,11111222,99999999' 
TABS,ioos:station:wmo:42047:1,2004-08-21T12:30:00Z,27.8966,-93.5973,2.0,53.67359964,39.85579255,-99999.0,'11111222,11111222,99999999' 
TABS,ioos:station:wmo:42047:1,2004-08-21T13:00:00Z,27.8966,-93.5973,2.0,56.6241245,38.95440668,-99999.0,'11111222,11111222,99999999' 
TABS,ioos:station:wmo:42047:1,2004-08-21T13:30:00Z,27.8966,-93.5973,2.0,55.72246676,39.48840969,-99999.0,'11111222,11111222,99999999' 
TABS,ioos:station:wmo:42047:1,2004-08-21T14:00:00Z,27.8966,-93.5973,2.0,58.31933697,37.41534578,-99999.0,'11111222,11111222,99999999' 
TABS,ioos:station:wmo:42047:1,2004-08-21T14:30:00Z,27.8966,-93.5973,2.0,57.34644574,66.23926706,-99999.0,'11111222,11111222,99999999' 
TABS,ioos:station:wmo:42047:1,2004-08-21T15:00:00Z,27.8966,-93.5973,2.0,55.51794639,76.0400217,-99999.0,'11111222,11111222,99999999' 
TABS,ioos:station:wmo:42047:1,2004-08-21T15:30:00Z,27.8966,-93.5973,2.0,57.33900316,77.06583225,-99999.0,'11111222,11111222,99999999' 
TABS,ioos:station:wmo:42047:1,2004-08-21T16:00:00Z,27.8966,-93.5973,2.0,59.26955396,74.99009268,-99999.0,'11111222,11111222,99999999' 
TABS,ioos:station:wmo:42047:1,2004-08-21T16:30:00Z,27.8966,-93.5973,2.0,61.04021649,71.06616987,-99999.0,'11111222,11111222,99999999' 
TABS,ioos:station:wmo:42047:1,2004-08-21T17:00:00Z,27.8966,-93.5973,2.0,61.03914508,73.06701924,-99999.0,'11111222,11111222,99999999' 
TABS,ioos:station:wmo:42047:1,2004-08-21T17:30:00Z,27.8966,-93.5973,2.0,60.63042685,76.13539321,-99999.0,'11111222,11111222,99999999' 
TABS,ioos:station:wmo:42047:1,2004-08-21T18:00:00Z,27.8966,-93.5973,2.0,61.65341353,76.09440058,-99999.0,'11111222,11111222,99999999' 
TABS,ioos:station:wmo:42047:1,2004-08-21T18:30:00Z,27.8966,-93.5973,2.0,59.13854049,74.97587079,-99999.0,'11111222,11111222,99999999' 
TABS,ioos:station:wmo:42047:1,2004-08-21T19:00:00Z,27.8966,-93.5973,2.0,58.23278121,74.23017244,-99999.0,'11111222,11111222,99999999' 
TABS,ioos:station:wmo:42047:1,2004-08-21T19:30:00Z,27.8966,-93.5973,2.0,58.39309223,72.10597895,-99999.0,'11111222,11111222,99999999' 
TABS,ioos:station:wmo:42047:1,2004-08-21T20:00:00Z,27.8966,-93.5973,2.0,60.64910831,68.91656767,-99999.0,'11111222,11111222,99999999' 
TABS,ioos:station:wmo:42047:1,2004-08-21T20:30:00Z,27.8966,-93.5973,2.0,60.88065258,67.83367674,-99999.0,'11111222,11111222,99999999' 
TABS,ioos:station:wmo:42047:1,2004-08-21T21:00:00Z,27.8966,-93.5973,2.0,61.36141923,64.88846199,-99999.0,'11111222,11111222,99999999' 
TABS,ioos:station:wmo:42047:1,2004-08-21T21:30:00Z,27.8966,-93.5973,2.0,65.0099653,61.99380776,-99999.0,'11111222,11111222,99999999' 
TABS,ioos:station:wmo:42047:1,2004-08-21T22:00:00Z,27.8966,-93.5973,2.0,66.48023451,60.19050174,-99999.0,'11111222,11111222,99999999' 
TABS,ioos:station:wmo:42047:1,2004-08-21T22:30:00Z,27.8966,-93.5973,2.0,62.84176607,59.17400274,-99999.0,'11111222,11111222,99999999' 
TABS,ioos:station:wmo:42047:1,2004-08-21T23:00:00Z,27.8966,-93.5973,2.0,64.38242488,59.23259407,-99999.0,'11111222,11111222,99999999' 
TABS,ioos:station:wmo:42047:1,2004-08-21T23:30:00Z,27.8966,-93.5973,2.0,64.9358023,54.81141213,-99999.0,'11111222,11111222,99999999' 
TABS,ioos:station:wmo:42047:1,2004-08-22T00:00:00Z,27.8966,-93.5973,2.0,61.63945243,53.80832742,-99999.0,'11111222,11111222,99999999' 
TABS,ioos:station:wmo:42047:1,2004-08-22T00:30:00Z,27.8966,-93.5973,2.0,63.00859656,52.88,-99999.0,'11111222,11111222,99999999' 
TABS,ioos:station:wmo:42047:1,2004-08-22T01:00:00Z,27.8966,-93.5973,2.0,65.53420802,49.81277447,-99999.0,'11111222,11111222,99999999' 
TABS,ioos:station:wmo:42047:1,2004-08-22T01:30:00Z,27.8966,-93.5973,2.0,67.27971344,45.62007014,-99999.0,'11111222,11111222,99999999' 
TABS,ioos:station:wmo:42047:1,2004-08-22T02:00:00Z,27.8966,-93.5973,2.0,66.31165912,46.69427374,-99999.0,'11111222,11111222,99999999' 
TABS,ioos:station:wmo:42047:1,2004-08-22T02:30:00Z,27.8966,-93.5973,2.0,68.79797206,43.49408466,-99999.0,'11111222,11111222,99999999' 
TABS,ioos:station:wmo:42047:1,2004-08-22T03:00:00Z,27.8966,-93.5973,2.0,61.10194372,41.96553348,-99999.0,'11111222,11111222,99999999' 
TABS,ioos:station:wmo:42047:1,2004-08-22T03:30:00Z,27.8966,-93.5973,2.0,55.51744218,39.90062907,-99999.0,'11111222,11111222,99999999' 
TABS,ioos:station:wmo:42047:1,2004-08-22T04:00:00Z,27.8966,-93.5973,2.0,52.72296433,38.83298083,-99999.0,'11111222,11111222,99999999' 
TABS,ioos:station:wmo:42047:1,2004-08-22T04:30:00Z,27.8966,-93.5973,2.0,50.54867503,39.5641517,-99999.0,'11111222,11111222,99999999' 
TABS,ioos:station:wmo:42047:1,2004-08-22T05:00:00Z,27.8966,-93.5973,2.0,49.92056403,36.6855462,-99999.0,'11111222,11111222,99999999' 
TABS,ioos:station:wmo:42047:1,2004-08-22T05:30:00Z,27.8966,-93.5973,2.0,44.08870865,38.23102928,-99999.0,'11111222,11111222,99999999' 
TABS,ioos:station:wmo:42047:1,2004-08-22T06:00:00Z,27.8966,-93.5973,2.0,42.72530842,36.87639489,-99999.0,'11111222,11111222,99999999' 
TABS,ioos:station:wmo:42047:1,2004-08-22T06:30:00Z,27.8966,-93.5973,2.0,42.70690724,37.46423628,-99999.0,'11111222,11111222,99999999' 
TABS,ioos:station:wmo:42047:1,2004-08-22T07:00:00Z,27.8966,-93.5973,2.0,34.87053663,34.73715014,-99999.0,'11111222,11111222,99999999' 
TABS,ioos:station:wmo:42047:1,2004-08-22T07:30:00Z,27.8966,-93.5973,2.0,31.56959115,36.5020835,-99999.0,'11111222,11111222,99999999' 
TABS,ioos:station:wmo:42047:1,2004-08-22T08:00:00Z,27.8966,-93.5973,2.0,26.47785866,44.00586893,-99999.0,'11111222,11111222,99999999' 
TABS,ioos:station:wmo:42047:1,2004-08-22T08:30:00Z,27.8966,-93.5973,2.0,27.56969911,46.17295529,-99999.0,'11111222,11111222,99999999' 
TABS,ioos:station:wmo:42047:1,2004-08-22T09:00:00Z,27.8966,-93.5973,2.0,26.09849878,46.66828688,-99999.0,'11111222,11111222,99999999' 
TABS,ioos:station:wmo:42047:1,2004-08-22T09:30:00Z,27.8966,-93.5973,2.0,30.19488599,46.12869931,-99999.0,'11111222,11111222,99999999' 
TABS,ioos:station:wmo:42047:1,2004-08-22T10:00:00Z,27.8966,-93.5973,2.0,30.76035478,46.82798415,-99999.0,'11111222,11111222,99999999' 
TABS,ioos:station:wmo:42047:1,2004-08-22T10:30:00Z,27.8966,-93.5973,2.0,29.81279802,48.23342099,-99999.0,'11111222,11111222,99999999' 
TABS,ioos:station:wmo:42047:1,2004-08-22T11:00:00Z,27.8966,-93.5973,2.0,32.78174772,48.98063699,-99999.0,'11111222,11111222,99999999' 
TABS,ioos:station:wmo:42047:1,2004-08-22T11:30:00Z,27.8966,-93.5973,2.0,34.11623156,46.99827337,-99999.0,'11111222,11111222,99999999' 
TABS,ioos:station:wmo:42047:1,2004-08-22T12:00:00Z,27.8966,-93.5973,2.0,37.07161354,44.90627796,-99999.0,'11111222,11111222,99999999' 
TABS,ioos:station:wmo:42047:1,2004-08-22T12:30:00Z,27.8966,-93.5973,2.0,35.53780515,46.36653319,-99999.0,'11111222,11111222,99999999' 
TABS,ioos:station:wmo:42047:1,2004-08-22T13:00:00Z,27.8966,-93.5973,2.0,40.26023386,43.89882572,-99999.0,'11111222,11111222,99999999' 
TABS,ioos:station:wmo:42047:1,2004-08-22T13:30:00Z,27.8966,-93.5973,2.0,42.95196935,42.34031885,-99999.0,'11111222,11111222,99999999' 
TABS,ioos:station:wmo:42047:1,2004-08-22T14:00:00Z,27.8966,-93.5973,2.0,43.01802128,42.93292676,-99999.0,'11111222,11111222,99999999' 
TABS,ioos:station:wmo:42047:1,2004-08-22T14:30:00Z,27.8966,-93.5973,2.0,43.78683426,43.07953226,-99999.0,'11111222,11111222,99999999' 
TABS,ioos:station:wmo:42047:1,2004-08-22T15:00:00Z,27.8966,-93.5973,2.0,43.60618626,42.43896559,-99999.0,'11111222,11111222,99999999' 
TABS,ioos:station:wmo:42047:1,2004-08-22T15:30:00Z,27.8966,-93.5973,2.0,47.06942935,41.71114599,-99999.0,'11111222,11111222,99999999' 
TABS,ioos:station:wmo:42047:1,2004-08-22T16:00:00Z,27.8966,-93.5973,2.0,47.1527957,45.55568461,-99999.0,'11111222,11111222,99999999' 
TABS,ioos:station:wmo:42047:1,2004-08-22T16:30:00Z,27.8966,-93.5973,2.0,51.86690033,44.1787381,-99999.0,'11111222,11111222,99999999' 
TABS,ioos:station:wmo:42047:1,2004-08-22T17:00:00Z,27.8966,-93.5973,2.0,50.84480511,42.98218817,-99999.0,'11111222,11111222,99999999' 
TABS,ioos:station:wmo:42047:1,2004-08-22T17:30:00Z,27.8966,-93.5973,2.0,49.65984256,44.04276331,-99999.0,'11111222,11111222,99999999' 
TABS,ioos:station:wmo:42047:1,2004-08-22T18:00:00Z,27.8966,-93.5973,2.0,48.57291459,43.11832325,-99999.0,'11111222,11111222,99999999' 
TABS,ioos:station:wmo:42047:1,2004-08-22T18:30:00Z,27.8966,-93.5973,2.0,49.39740516,44.54450022,-99999.0,'11111222,11111222,99999999' 
TABS,ioos:station:wmo:42047:1,2004-08-22T19:00:00Z,27.8966,-93.5973,2.0,52.04012812,37.84684927,-99999.0,'11111222,11111222,99999999' 
TABS,ioos:station:wmo:42047:1,2004-08-22T19:30:00Z,27.8966,-93.5973,2.0,56.26142819,39.2506,-99999.0,'11111222,11111222,99999999' 
TABS,ioos:station:wmo:42047:1,2004-08-22T20:00:00Z,27.8966,-93.5973,2.0,55.94748972,38.57462378,-99999.0,'11111222,11111222,99999999' 
TABS,ioos:station:wmo:42047:1,2004-08-22T20:30:00Z,27.8966,-93.5973,2.0,56.55972018,36.9101016,-99999.0,'11111222,11111222,99999999' 
TABS,ioos:station:wmo:42047:1,2004-08-22T21:00:00Z,27.8966,-93.5973,2.0,60.14996222,35.11925398,-99999.0,'11111222,11111222,99999999' 
TABS,ioos:station:wmo:42047:1,2004-08-22T21:30:00Z,27.8966,-93.5973,2.0,62.30339227,36.23136763,-99999.0,'11111222,11111222,99999999' 
TABS,ioos:station:wmo:42047:1,2004-08-22T22:00:00Z,27.8966,-93.5973,2.0,68.14744435,35.32855219,-99999.0,'11111222,11111222,99999999' 
TABS,ioos:station:wmo:42047:1,2004-08-22T22:30:00Z,27.8966,-93.5973,2.0,72.29892191,33.57981834,-99999.0,'11111222,11111222,99999999' 
TABS,ioos:station:wmo:42047:1,2004-08-22T23:00:00Z,27.8966,-93.5973,2.0,66.85894099,32.7228926,-99999.0,'11111222,11111222,99999999' 
TABS,ioos:station:wmo:42047:1,2004-08-22T23:30:00Z,27.8966,-93.5973,2.0,72.52961667,30.24514672,-99999.0,'11111222,11111222,99999999' 
TABS,ioos:station:wmo:42047:1,2004-08-23T00:00:00Z,27.8966,-93.5973,2.0,70.4375242,28.28256353,-99999.0,'11111222,11111222,99999999' 
TABS,ioos:station:wmo:42047:1,2004-08-23T00:30:00Z,27.8966,-93.5973,2.0,70.48582334,24.84726142,-99999.0,'11111222,11111222,99999999' 
TABS,ioos:station:wmo:42047:1,2004-08-23T01:00:00Z,27.8966,-93.5973,2.0,69.22357719,21.9044128,-99999.0,'11111222,11111222,99999999' 
TABS,ioos:station:wmo:42047:1,2004-08-23T01:30:00Z,27.8966,-93.5973,2.0,59.56918412,18.44032538,-99999.0,'11111222,11111222,99999999' 
TABS,ioos:station:wmo:42047:1,2004-08-23T02:00:00Z,27.8966,-93.5973,2.0,48.18981348,20.46001222,-99999.0,'11111222,11111222,99999999' 
TABS,ioos:station:wmo:42047:1,2004-08-23T02:30:00Z,27.8966,-93.5973,2.0,40.57594685,19.52482778,-99999.0,'11111222,11111222,99999999' 
TABS,ioos:station:wmo:42047:1,2004-08-23T03:00:00Z,27.8966,-93.5973,2.0,40.58061751,20.92185938,-99999.0,'11111222,11111222,99999999' 
TABS,ioos:station:wmo:42047:1,2004-08-23T03:30:00Z,27.8966,-93.5973,2.0,38.12262685,21.31709408,-99999.0,'11111222,11111222,99999999' 
TABS,ioos:station:wmo:42047:1,2004-08-23T04:00:00Z,27.8966,-93.5973,2.0,35.40320325,22.26729665,-99999.0,'11111222,11111222,99999999' 
TABS,ioos:station:wmo:42047:1,2004-08-23T04:30:00Z,27.8966,-93.5973,2.0,35.61038317,21.1071007,-99999.0,'11111222,11111222,99999999' 
TABS,ioos:station:wmo:42047:1,2004-08-23T05:00:00Z,27.8966,-93.5973,2.0,30.93006333,20.33116081,-99999.0,'11111222,11111222,99999999' 
TABS,ioos:station:wmo:42047:1,2004-08-23T05:30:00Z,27.8966,-93.5973,2.0,31.4814464,17.84687087,-99999.0,'11111222,11111222,99999999' 
TABS,ioos:station:wmo:42047:1,2004-08-23T06:00:00Z,27.8966,-93.5973,2.0,27.51699682,19.65327708,-99999.0,'11111222,11111222,99999999' 
TABS,ioos:station:wmo:42047:1,2004-08-23T06:30:00Z,27.8966,-93.5973,2.0,20.2726285,21.99230093,-99999.0,'11111222,11111222,99999999' 
TABS,ioos:station:wmo:42047:1,2004-08-23T07:00:00Z,27.8966,-93.5973,2.0,20.10136868,21.96814512,-99999.0,'11111222,11111222,99999999' 
TABS,ioos:station:wmo:42047:1,2004-08-23T07:30:00Z,27.8966,-93.5973,2.0,8.969522544,27.1317692,-99999.0,'11111222,11111222,99999999' 
TABS,ioos:station:wmo:42047:1,2004-08-23T08:00:00Z,27.8966,-93.5973,2.0,15.41648637,29.30437851,-99999.0,'11111222,11111222,99999999' 